Showing default

JILIN-01 GAOFEN 3D 29, 52446

Orbit data source: Space-Track

JILIN-01 GAOFEN 3D 29, 52446 is a payload satellite owned by Changguang WJ (CN) in SSO that was launched on Thu, 05 May 2022 UTC via a CHANG ZHENG 2D launch vehicle from the Taiyaun Space Center, China (TSC). Payload-class satellites include a variety of spacecraft equipped with specific instruments for various scientific and technological missions. These include communications satellites like Starlink; space stations such as the ISS; scientific satellites like the Hubble; Earth observation satellites from companies like Planet Labs, Umbra, and HawkEye 360; GPS; miniature CubeSats for education and research; and military/defense satellites.

Loading next visibility...
Identifier
52446, 2022-048D
Orbit
SSO
Country
Flag of CNCN / PRC
Related business
Manufacturer
Changguang WJ
Mission
Operational Commercial Imaging
Bus & Motor
JL-1, Unknown motor
Mass
42 kg wet, 42 kg dry
Launch date (UTC)
2022-05-05 (4 years ago)
Launch vehicle
CHANG ZHENG 2D
Launch site
Taiyaun Space Center, China (TSC)
Object type
Payload
Rocket body
Debris
Shape & HBR
Box + 2 Pan, 0.8 m
Radar Cross Section
2.000 m², Medium (>0.1 m² and < 1m²)

Expand to show TLE details & history
Last TLE update: 7 hours ago

TLE from 7 hours ago
0 JILIN-01 GAOFEN 3D 29
1 52446U 22048D   26168.07968764  .00110367  00000-0  72211-3 0  9991
2 52446  97.5715 282.3627 0001097 249.5842 110.5305 15.75481195229484
Epoch: 2026-06-17T01:54Z
TLE epoch observation values (Epoch: 2026-06-17T01:54:45.012Z)
Latitude
0.00002°
Longitude
-11.66737°
Altitude
346.681 km
Speed
7.701 km/s
True Right ascension
18h 49m 27s
True Declination
0° 00' 00"
Sunlit
Object was in full shadow at epoch
Visualization orbit readout
Latitude
Unknown
Longitude
Unknown
Altitude
Unknown
Speed
Unknown
Apparent Right ascension
Unknown
Apparent Declination
Unknown
Sunlit
N/A
Visualization observer readout
Local Sidereal Time
19:31:31
Azimuth
Unknown
Elevation
Unknown
Doppler factor
Unknown
Orbital elements
Apogee altitude
340.899 km
Perigee altitude
339.425 km
Semi-major axis
6,718.299 km
Eccentricity
0.00011
Inclination
97.5715°
RAAN
282.3627°
Arg. of periapsis
249.5842°
True anomaly
110.54227°
Mean anomaly
110.5305°
Eccentric anomaly
110.53639°
Mean motion
3.94143 °/min
Orbital period
91.34 mins
BSTAR
0.00072211
Loading maneuver chart data...
Computing Atmospheric mass density...
Loading historical data...
Loading historical data...
Loading historical data...
Loading historical data...
Loading historical data...
Loading historical data...
Loading historical data...

Documentation

Showing up to 5 results
|